Location: Unspecified
(42.1900°N, 71.3291°W)
Time: 17:36:31
(UTC-04:00)

Okean 3 - Visible Passes

Search period start: 28 March 2017 00:00
Search period end: 07 April 2017 00:00
Orbit: 577 x 603 km, 82.5° (Epoch: 27 March)

Date Brightness Start Highest point End Pass type
(mag) Time Alt. Az. Time Alt. Az. Time Alt. Az.
28 Mar 6.6 02:40:58 11° NNE 02:40:58 11° NNE 02:41:14 10° NNE visible
28 Mar 6.1 04:17:32 10° NNW 04:17:32 10° NNW 04:17:38 10° NNW visible
29 Mar 6.5 02:49:17 13° NNE 02:49:17 13° NNE 02:49:43 10° NNE visible
30 Mar 6.4 02:57:35 13° N 02:57:35 13° N 02:58:05 10° N visible
31 Mar 6.3 03:05:51 13° N 03:05:51 13° N 03:06:19 10° N visible
01 Apr 6.3 03:14:08 12° N 03:14:08 12° N 03:14:28 10° N visible
02 Apr 6.3 03:22:23 10° NNW 03:22:23 10° NNW 03:22:28 10° NNW visible
05 Apr 6.7 02:10:32 11° N 02:10:32 11° N 02:10:38 10° N visible
06 Apr 6.6 02:18:45 11° N 02:18:45 11° N 02:18:53 10° N visible
